ROMMA est une association bénévole à but non lucratif. Votre soutien est indispensable : ADHERER à ROMMA ou FAIRE un DON

Le Versoud - (38, Isère)

Vallée du Grésivaudan (220 m)   Longitude: 05° 51' 44" E   Latitude: 45° 13' 06" N Station partenaire n°6
 

Détail journalier du     <<     >>

Température Precipitation Humidité Pression Vent Dir Rafale Dir. rafale Ensol.
Heure (°C) (mm) (%) (hPa) (km/h) (km/h) (min)
01:00 19.8071101300---0
02:00 19.2076101300---0
03:00 18.9077101300---0
04:00 17.9078101200---0
05:00 16.9083101100---0
06:00 16.2085101100---0
07:00 16.3082101200---0
08:00 19.0074101200---55
09:00 21.7063101100---60
10:00 23.9053101102NE60
11:00 26.1045101002NE60
12:00 27.4044100906ENE60
13:00 28.9041100808SSE60
14:00 30.40371007013SSO50
15:00 32.103010065S24SO60
16:00 32.702910065OSO26O50
17:00 32.302810065OSO32SO60
18:00 31.702910063OSO26OSO60
19:00 30.703210063SSO31SSO50
20:00 28.403310063S26S30
21:00 27.003510072S16SSE50
22:00 24.10421007010SSE0
23:00 23.2043100700---0
minuit 20.6054100800---0

Graphique du 04-06-2019

 

Serveur OMMA